Regional Weather Roundup
Issued by NWS Jackson, KY

Home | Current Version | Previous Version | Text Only | Print | Product List | Glossary On
Versions: 1 2 3 4 5 6 7 8 9 10 11 12 13 14 15 16 17 18 19 20 21 22 23 24 25 26 27 28 29 30 31 32 33 34 35 36 37 38 39 40 41 42 43 44 45 46 47 48 49 50
000
ASUS43 KJKL 200711
RWRJKL

EAST KENTUCKY HOURLY WEATHER ROUNDUP
NATIONAL WEATHER SERVICE JACKSON KY
300 AM EDT WED AUG 20 2014

NOTE: "FAIR" INDICATES FEW OR NO CLOUDS BELOW 12,000 FEET WITH
NO SIGNIFICANT WEATHER AND/OR OBSTRUCTIONS TO VISIBILITY.

* THESE REPORTS ARE NOT UNDER NWS QUALITY CONTROL AND MAY NOT
  REPORT WEATHER SUCH AS PRECIPITATION AND FOG.

KYZ079-080-083-085-087-088-110-112-115-119-120-200800
...EASTERN KENTUCKY...

CITY           SKY/WX    TMP DP  RH WIND       PRES   REMARKS
JACKSON        MOCLDY    71  68  90 CALM      29.91F
LONDON         CLOUDY    73  69  87 CALM      29.93F
SOMERSET*      MOCLDY    72  70  94 CALM      29.91F
MONTICELLO*    PTCLDY    73  71  93 CALM      29.93F
WILLIAMSBURG*  PTCLDY   N/A N/A N/A CALM        N/A
MIDDLESBORO*   MOCLDY    67  66  99 CALM      29.96F FOG
HARLAN APT*    CLOUDY    68  68 100 MISG      29.97F VSB<1/4
HAZARD APT*    SUNNY     70  70 100 CALM      29.92F FOG
BLACK MTN*       N/A     64  64 100 S5          N/A
PIKEVILLE APT* PTCLDY    70  68  94 CALM      29.94F FOG
BIG SANDY*     SUNNY     71  70  96 S5        29.91F
MOREHEAD APT*  PTSUNNY   72  70  94 S5        29.90S
$$

KYZ035-036-041-042-044-050-067-078-099-200800
...CENTRAL KENTUCKY...

CITY           SKY/WX    TMP DP  RH WIND       PRES   REMARKS
MT STERLING*   LGT RAIN  70  64  83 S12       29.90R
FLEMING/MASON* HVY RAIN  72  70  94 W32G44    29.93R
DANVILLE*      MOCLDY    68  64  88 S6        29.90S
RICHMOND*      MOCLDY    73  66  78 S8        29.88F
LEXINGTON      MOCLDY    74  64  71 SW8       29.88R
FRANKFORT      PTCLDY    72  67  84 CALM      29.87R
$$

KYZ091>093-OHZ055-061-077-WVZ005-015-034-035-042-200800
...SOUTHERN OHIO/WEST VIRGINIA...

CITY           SKY/WX    TMP DP  RH WIND       PRES   REMARKS
COVINGTON      CLOUDY    67  65  93 SW3       29.89F THUNDER
COLUMBUS       CLOUDY    77  68  73 S8        29.81F
DAYTON         TSTM      73  67  81 SW12      29.84R
WILMINGTON     TSTM      69  64  84 SW17G32   29.87R
HUNTINGTON     CLEAR     71  70  96 S3        29.86F
CHARLESTON     PTCLDY    69  69 100 CALM      29.89F FOG
PINEVILLE*     FOG       70  70 100 MISG      30.01F VSB 1/2
BECKLEY        CLEAR     64  62  93 E3        30.00F FOG
BLUEFIELD      FOG       65  62  90 SW6       30.03S VSB 3/4
$$

VAZ002-007-008-TNZ017-027-036-066-071-200800
...SOUTHWEST VIRGINIA/EAST TENNESSEE...

CITY           SKY/WX    TMP DP  RH WIND       PRES   REMARKS
WISE*          FOG       64  64 100 SW6       30.03F VSB 1/2
JONESVILLE*    FOG       66  66 100 CALM      29.99F VSB<1/4
ABINGDON*      PTCLDY    67  67 100 CALM      30.00F FOG
BRISTOL        CLEAR     67  65  93 CALM      29.98F FOG
KNOXVILLE      PTCLDY    71  69  93 CALM      29.94F
OAK RIDGE      CLEAR     71  69  93 CALM      29.96F
CROSSVILLE     PTCLDY    71  67  87 SW3       30.00F FOG
NASHVILLE      CLEAR     77  72  84 S6        29.91F
$$

...KEY TO REMARKS...
VSB - VISIBILITY IN MILES
WCI - WIND CHILL INDEX
HX  - HEAT INDEX

$$



USA.gov is the U.S. government's official web portal to all federal, state and local government web resources and services.